This is the latest recevied weather packets stored in our database for station/object KE8DAF-15. If no packets are shown the sender has not sent any weather packets the latest 10 day(s).
| Time | Temp. | Humidity | Pressure | Rain* | Wind** | Luminosity | Snow |
|---|---|---|---|---|---|---|---|
| 1787859773 | 21.11° C | 71% | 1000.2 hPa | 0 mm | - | - | - |
| 1787859473 | 21.11° C | 72% | 1000.2 hPa | 0 mm | - | - | - |
| 1787859173 | 21.11° C | 75% | 1000.2 hPa | 0 mm | - | - | - |
| 1787858873 | 21.67° C | 71% | 1000.1 hPa | 0 mm | - | - | - |
| 1787858573 | 21.67° C | 70% | 1000.2 hPa | 0 mm | - | - | - |
| 1787858273 | 21.67° C | 72% | 1000.1 hPa | 0 mm | - | - | - |
| 1787857973 | 21.67° C | 71% | 1000 hPa | 0 mm | - | - | - |
| 1787857673 | 21.67° C | 69% | 1000 hPa | 0 mm | - | - | - |
| 1787857373 | 22.22° C | 72% | 1000.1 hPa | 0 mm | - | - | - |
| 1787857073 | 22.22° C | 74% | 999.9 hPa | 0 mm | - | - | - |
| 1787856773 | 22.22° C | 75% | 1000 hPa | 0 mm | - | - | - |
| 1787856473 | 21.67° C | 75% | 1000 hPa | 0 mm | - | - | - |
| 1787856173 | 21.67° C | 77% | 1000 hPa | 0 mm | - | - | - |
| 1787855873 | 21.67° C | 77% | 999.9 hPa | 0 mm | - | - | - |
| 1787855573 | 21.67° C | 77% | 999.9 hPa | 0 mm | - | - | - |
| 1787855274 | 21.67° C | 74% | 999.9 hPa | 0 mm | - | - | - |
| 1787855006 | 21.11° C | 77% | 999.8 hPa | 0 mm | - | - | - |
| 1787854974 | 21.11° C | 77% | 999.8 hPa | 0 mm | - | - | - |
| 1787854675 | 21.11° C | 78% | 999.8 hPa | 0 mm | - | - | - |
| 1787854373 | 20.56° C | 77% | 999.8 hPa | 0 mm | - | - | - |
| 1787854074 | 20.56° C | 82% | 999.7 hPa | 0 mm | - | - | - |
| 1787853774 | 20° C | 83% | 999.7 hPa | 0 mm | - | - | - |
| 1787853474 | 20° C | 79% | 999.7 hPa | 0 mm | - | - | - |
| 1787853174 | 20° C | 79% | 999.7 hPa | 0 mm | - | - | - |
| 1787852874 | 20° C | 81% | 999.6 hPa | 0 mm | - | - | - |
* Rain latest hour (hover to see other rain measurements)
** Current wind speed in m/s (hover to see current wind gust speed)